Precipitable_Water
1.62 1.65 1.68 1.69 1.73 1.72 1.64 1.58 1.47 1.47 1.59 1.67 1.92 1.79 1.89 1.82 1.79 1.76 1.72 1.79 1.57 1.51 1.44 1.42 1.37 1.30 1.33 1.37 1.38 1.34 1.31 1.29 1.12 1.19 1.29 1.37 1.40 1.32 1.31 1.37 1.38 1.32 1.38
1.67 1.64 1.63 1.70 1.75 1.73 1.69 1.71 1.66 1.51 1.47 1.54 1.77 1.83 1.88 1.86 1.86 1.78 1.68 1.60 1.59 1.49 1.46 1.45 1.38 1.36 1.25 1.22 1.29 1.30 1.27 1.33 1.24 1.11 1.19 1.15 1.20 1.30 1.32 1.32 1.36 1.34 1.33
1.70 1.67 1.65 1.66 1.69 1.71 1.70 1.73 1.73 1.66 1.56 1.47 1.57 1.78 1.91 1.86 1.84 1.86 1.81 1.67 1.65 1.63 1.59 1.49 1.39 1.41 1.36 1.35 1.33 1.20 1.25 1.38 1.35 1.22 1.17 1.27 1.27 1.33 1.27 1.39 1.36 1.34 1.43
1.97 1.76 1.64 1.65 1.72 1.71 1.77 1.78 1.76 1.75 1.65 1.59 1.46 1.53 1.69 1.77 1.76 1.77 1.79 1.73 1.74 1.68 1.67 1.59 1.49 1.42 1.38 1.38 1.34 1.32 1.26 1.24 1.24 1.16 1.17 1.22 1.25 1.31 1.34 1.29 1.24 1.23 1.18
1.82 1.96 1.83 1.72 1.75 1.74 1.71 1.70 1.78 1.73 1.70 1.68 1.61 1.52 1.46 1.51 1.57 1.58 1.64 1.67 1.63 1.69 1.70 1.63 1.53 1.44 1.41 1.40 1.38 1.40 1.34 1.34 1.30 1.23 1.16 1.20 1.21 1.27 1.23 1.22 1.03 1.13 1.17
1.90 1.80 1.79 1.80 1.73 1.76 1.80 1.75 1.76 1.68 1.76 1.75 1.63 1.59 1.51 1.44 1.34 1.37 1.51 1.51 1.59 1.62 1.64 1.63 1.57 1.51 1.39 1.27 1.19 1.17 1.33 1.24 1.10 1.03 0.99 0.95 1.03 1.06 1.08 1.07 1.09 0.94 0.86
1.77 1.80 1.75 1.74 1.75 1.73 1.76 1.76 1.77 1.72 1.73 1.64 1.68 1.64 1.56 1.53 1.44 1.25 1.23 1.31 1.38 1.48 1.48 1.49 1.51 1.50 1.50 1.41 1.31 1.23 1.17 1.12 1.10 1.07 0.99 0.98 0.93 1.02 1.05 0.96 0.96 1.02 0.88
1.66 1.75 1.79 1.78 1.75 1.81 1.86 1.88 1.88 1.84 1.78 1.75 1.67 1.68 1.66 1.65 1.59 1.47 1.32 1.25 1.21 1.24 1.35 1.51 1.49 1.38 1.44 1.56 1.45 1.36 1.34 1.29 1.21 1.19 1.14 1.09 1.13 1.18 1.18 1.17 1.09 1.12 1.11
1.22 1.52 1.74 1.80 1.79 1.82 1.88 1.95 2.02 1.99 1.95 1.82 1.83 1.76 1.69 1.67 1.68 1.60 1.52 1.42 1.30 1.22 1.17 1.15 1.29 1.41 1.43 1.30 1.33 1.35 1.30 1.28 1.39 1.42 1.39 1.34 1.28 1.25 1.24 1.18 1.01 0.92 0.79
0.99 1.09 1.30 1.60 1.75 1.76 1.80 1.88 1.94 2.02 1.99 2.01 1.96 1.88 1.80 1.71 1.73 1.69 1.64 1.57 1.43 1.35 1.37 1.29 1.16 1.07 1.20 1.35 1.27 1.19 1.11 1.12 1.23 1.19 1.26 1.32 1.33 1.28 1.25 1.23 1.13 0.96 0.91
0.94 0.99 1.06 1.16 1.33 1.60 1.73 1.83 1.86 1.85 1.89 2.03 2.11 2.11 2.06 1.88 1.83 1.76 1.67 1.64 1.51 1.43 1.40 1.37 1.38 1.29 1.20 1.15 1.20 1.24 1.18 1.27 1.27 1.22 1.20 1.18 1.18 1.25 1.35 1.41 1.41 1.28 1.09
0.79 0.86 0.93 1.00 1.09 1.14 1.40 1.56 1.72 1.78 1.80 1.88 1.90 2.00 2.16 2.19 2.09 1.98 1.81 1.76 1.72 1.58 1.49 1.48 1.49 1.48 1.39 1.33 1.33 1.31 1.33 1.37 1.37 1.22 1.08 1.01 1.01 1.07 1.15 1.27 1.38 1.46 1.46
0.63 0.69 0.80 0.87 0.92 1.04 1.03 1.16 1.34 1.56 1.67 1.76 1.77 1.83 1.93 2.06 2.18 2.25 2.15 2.04 1.90 1.79 1.76 1.71 1.68 1.65 1.58 1.49 1.41 1.38 1.40 1.39 1.33 1.25 1.14 1.06 1.06 1.07 1.11 1.17 1.23 1.45 1.53
0.53 0.54 0.62 0.72 0.78 0.81 0.95 0.99 0.99 1.15 1.39 1.54 1.64 1.71 1.77 1.92 2.08 2.18 2.29 2.25 2.12 2.01 1.93 1.83 1.74 1.68 1.63 1.53 1.51 1.45 1.43 1.40 1.34 1.25 1.21 1.22 1.19 1.13 1.08 1.17 1.15 1.14 1.19
0.56 0.53 0.52 0.57 0.64 0.70 0.78 0.86 0.94 0.99 1.05 1.17 1.27 1.38 1.51 1.65 1.85 2.03 1.97 2.00 2.08 2.13 2.03 1.95 1.86 1.69 1.51 1.46 1.46 1.46 1.51 1.47 1.33 1.24 1.25 1.24 1.20 1.16 1.13 1.20 1.16 1.12 1.11
0.63 0.59 0.55 0.56 0.56 0.59 0.64 0.69 0.82 0.92 0.98 1.05 1.15 1.19 1.25 1.37 1.56 1.63 1.78 1.92 1.98 2.08 2.05 2.01 1.93 1.94 1.80 1.69 1.60 1.52 1.54 1.53 1.43 1.37 1.29 1.25 1.23 1.24 1.21 1.22 1.20 1.13 1.08
0.61 0.65 0.63 0.59 0.60 0.58 0.58 0.61 0.62 0.74 0.86 0.95 1.04 1.11 1.16 1.19 1.33 1.46 1.59 1.70 1.84 1.96 1.91 1.88 1.87 1.92 2.00 2.06 1.93 1.81 1.73 1.75 1.69 1.53 1.43 1.40 1.36 1.29 1.22 1.17 1.15 1.13 1.09
0.59 0.63 0.65 0.63 0.62 0.59 0.57 0.57 0.58 0.62 0.66 0.71 0.88 1.02 1.08 1.12 1.17 1.28 1.36 1.52 1.58 1.73 1.80 1.81 1.80 1.91 1.94 1.99 2.12 2.06 1.99 2.03 1.92 1.84 1.76 1.71 1.61 1.47 1.35 1.26 1.24 1.20 1.17
0.54 0.59 0.64 0.66 0.66 0.64 0.62 0.62 0.59 0.54 0.57 0.66 0.72 0.79 1.01 1.12 1.13 1.15 1.23 1.27 1.43 1.60 1.77 1.84 1.83 1.89 1.88 1.80 1.78 2.10 2.17 2.19 2.22 2.09 1.99 1.91 1.82 1.80 1.76 1.67 1.57 1.53 1.52
0.53 0.56 0.61 0.65 0.68 0.65 0.63 0.60 0.59 0.57 0.54 0.56 0.65 0.71 0.82 0.97 1.01 1.01 1.05 1.16 1.34 1.52 1.58 1.84 2.04 1.98 1.90 1.85 1.79 2.02 2.15 2.20 2.21 2.09 2.01 1.97 1.92 1.94 1.86 1.85 1.88 1.89 1.93
0.50 0.53 0.57 0.59 0.64 0.65 0.64 0.63 0.62 0.60 0.56 0.55 0.58 0.71 0.81 0.82 0.87 0.92 0.96 1.04 1.17 1.29 1.40 1.63 1.91 2.04 2.10 2.14 2.11 2.13 2.19 2.21 2.24 2.23 2.17 2.10 2.04 1.99 2.06 2.09 2.10 2.13 2.09
0.53 0.54 0.57 0.58 0.61 0.62 0.64 0.65 0.62 0.61 0.60 0.60 0.60 0.64 0.75 0.78 0.80 0.86 0.94 1.00 1.08 1.18 1.29 1.38 1.71 1.89 1.96 2.00 1.98 2.05 2.11 2.13 2.13 2.20 2.24 2.22 2.20 2.19 2.17 2.15 2.14 2.10 2.07
0.50 0.51 0.53 0.56 0.59 0.60 0.60 0.61 0.61 0.61 0.60 0.62 0.63 0.60 0.62 0.71 0.77 0.80 0.83 0.94 1.04 1.07 1.17 1.25 1.46 1.74 1.85 1.94 1.98 1.96 1.90 1.95 1.96 1.99 2.01 2.01 1.95 1.89 1.96 1.98 1.95 1.90 1.99
0.50 0.51 0.52 0.55 0.57 0.57 0.57 0.56 0.58 0.60 0.61 0.61 0.62 0.62 0.60 0.62 0.73 0.76 0.80 0.84 0.98 1.05 1.10 1.18 1.27 1.48 1.67 1.77 1.78 1.81 1.83 1.84 1.86 1.86 1.90 1.86 1.82 1.84 1.87 1.86 1.82 1.77 1.81
0.51 0.51 0.52 0.53 0.55 0.56 0.56 0.56 0.57 0.58 0.60 0.61 0.61 0.61 0.63 0.61 0.65 0.75 0.78 0.82 0.91 1.04 1.07 1.13 1.16 1.24 1.44 1.56 1.65 1.69 1.73 1.74 1.76 1.84 1.83 1.76 1.69 1.71 1.78 1.76 1.73 1.69 1.66
0.53 0.52 0.53 0.53 0.53 0.54 0.55 0.55 0.57 0.59 0.59 0.60 0.62 0.62 0.62 0.62 0.62 0.70 0.77 0.79 0.84 1.00 1.07 1.11 1.16 1.19 1.28 1.39 1.48 1.58 1.63 1.73 1.72 1.67 1.64 1.56 1.48 1.46 1.56 1.59 1.57 1.48 1.54
Wind_Speed
21 21 21 20 19 18 18 17 17 17 15 13 12 11 10 8 8 8 8 7 7 8 8 8 9 11 10 9 9 10 10 10 11 12 12 11 11 13 13 14 14 15 15
23 22 22 22 21 20 20 20 19 18 17 17 16 14 13 12 10 10 9 9 9 8 9 10 10 10 11 12 12 11 11 12 12 13 14 15 14 14 14 14 15 15 15
24 24 23 23 23 22 22 21 21 20 19 19 18 17 16 15 14 13 12 11 11 10 10 10 10 11 12 12 12 12 13 13 13 13 14 15 15 15 15 15 15 16 16
18 21 24 25 25 24 24 23 23 23 22 21 21 20 19 18 17 15 15 15 14 13 12 12 12 12 12 13 13 14 14 14 14 15 14 14 15 15 15 16 16 16 17
19 18 18 23 26 26 26 26 26 26 25 24 23 23 23 22 20 19 18 17 17 16 15 14 14 14 13 13 13 14 14 15 15 15 16 16 16 15 15 17 19 19 19
20 21 21 20 20 24 26 27 27 28 27 28 27 26 26 25 24 23 22 20 20 19 19 18 17 16 16 15 15 16 16 15 16 17 17 17 18 19 19 19 20 20 21
19 21 24 24 24 23 24 26 27 27 28 30 30 30 29 29 27 26 27 26 24 23 22 21 20 19 19 18 18 19 19 19 19 19 19 19 19 19 20 20 21 20 21
18 20 23 24 25 25 26 27 29 30 30 30 31 32 32 31 31 30 30 30 29 29 27 25 24 24 23 21 22 21 21 21 21 21 22 22 22 21 21 21 21 21 21
18 20 22 25 26 27 28 28 28 30 32 33 32 33 33 33 33 33 33 33 33 32 32 31 30 28 27 27 27 25 24 24 23 23 23 23 23 23 22 22 21 21 20
21 22 22 25 26 27 27 29 29 29 29 31 32 33 34 34 34 35 35 35 35 34 34 34 34 34 32 31 30 30 29 28 26 25 24 25 26 26 26 25 24 23 22
27 26 26 26 26 28 29 29 31 31 31 30 33 34 34 34 34 35 36 37 36 36 35 34 34 34 35 35 35 33 32 31 30 29 28 28 27 26 25 24 23 23 23
32 31 30 30 29 29 29 30 31 33 33 33 31 31 33 35 35 35 36 37 37 37 37 36 35 35 35 36 35 35 34 34 33 32 31 30 29 27 26 25 25 26 25
36 36 36 35 34 33 32 31 31 32 33 34 33 34 33 33 34 35 35 36 37 39 39 38 37 36 36 35 35 36 35 35 34 34 33 33 32 31 30 28 27 26 27
40 40 40 39 39 38 37 36 34 34 34 34 35 34 35 31 32 36 34 32 32 36 37 39 40 41 39 38 36 35 35 35 36 35 34 34 33 32 31 29 29 28 27
43 43 43 43 43 42 41 41 40 38 37 36 36 36 36 37 36 34 37 37 37 35 35 35 36 37 38 39 38 38 36 35 35 35 35 34 33 32 32 31 30 29 29
43 44 45 45 45 46 45 45 45 44 43 41 40 39 38 38 40 40 40 40 40 39 38 36 34 34 36 37 37 37 37 36 35 34 33 33 34 33 32 32 31 31 30
43 44 46 47 48 47 47 48 48 47 47 46 44 43 41 40 38 39 39 41 42 43 41 39 39 38 37 36 37 37 36 35 34 34 34 33 32 31 31 31 31 31 30
42 45 46 48 49 50 50 50 50 50 49 48 47 46 45 44 42 40 40 40 41 42 44 43 41 40 40 40 38 37 37 36 37 37 37 35 34 33 32 31 31 31 30
42 43 45 47 49 51 52 52 51 51 53 53 51 49 47 46 43 42 41 40 41 41 43 44 42 40 40 41 40 39 38 38 37 37 37 36 34 34 32 31 31 31 30
43 44 45 47 49 50 50 51 52 52 51 52 54 52 50 49 47 45 43 40 39 40 39 45 44 42 41 40 40 38 37 37 36 36 36 35 34 34 33 33 34 33 32
42 43 44 46 47 47 48 50 50 51 51 52 53 54 53 52 50 48 47 45 42 41 39 39 42 42 42 41 40 40 38 37 36 35 35 34 34 34 34 34 34 34 34
39 40 42 43 44 46 47 47 49 49 50 51 52 54 55 54 53 51 49 47 45 43 41 40 41 41 40 40 37 37 35 35 34 34 34 34 33 33 33 34 34 34 35
36 37 38 40 41 43 44 44 46 47 49 50 50 52 55 56 54 52 50 49 47 45 43 42 41 40 40 40 40 38 37 35 34 34 34 33 34 35 34 33 33 34 34
30 31 33 34 36 38 40 42 43 45 47 49 51 52 53 57 57 55 52 50 48 45 43 41 40 40 39 39 40 41 40 38 37 37 35 36 37 36 37 37 36 35 35
25 26 28 29 31 33 36 39 41 44 46 47 50 52 54 55 57 56 53 51 48 47 43 41 39 37 38 39 38 36 37 36 38 37 36 34 32 34 39 40 39 37 35
22 22 23 24 26 29 33 36 39 42 44 45 48 50 52 54 55 56 54 51 48 46 45 42 40 37 35 35 35 35 34 35 32 31 31 32 33 31 29 27 28 29 29
Wind_Direction
221 221 221 222 222 222 223 224 225 225 225 226 224 221 223 223 223 225 229 223 223 223 226 227 228 233 235 236 238 240 243 247 251 255 261 268 276 282 286 293 299 306 313
223 224 224 225 226 226 227 227 228 228 228 229 229 229 230 232 232 232 232 233 232 231 232 234 237 236 238 242 245 248 252 257 261 265 267 271 275 279 284 290 295 301 306
224 225 226 227 228 229 230 231 231 231 232 232 232 232 234 236 237 238 238 238 238 239 240 239 241 242 243 245 246 250 252 256 260 263 270 273 275 280 284 288 292 298 302
225 231 227 230 231 232 233 234 234 234 235 236 236 236 237 239 241 242 241 241 243 245 246 247 247 247 247 249 249 251 254 259 263 268 270 272 276 280 282 286 292 296 300
231 231 232 234 234 235 236 236 238 238 238 238 239 240 240 242 243 243 244 245 245 246 248 249 250 251 251 251 253 253 256 259 263 268 271 275 277 283 285 288 290 293 297
236 236 236 240 237 237 237 239 240 240 241 240 241 242 242 243 244 244 245 247 247 247 249 251 253 252 252 254 255 257 259 264 266 270 274 276 280 282 284 287 290 293 295
244 242 241 242 243 243 244 242 242 242 243 243 243 243 244 245 246 246 246 247 249 250 251 252 253 254 253 256 257 259 261 263 265 269 273 276 281 283 285 287 288 291 293
248 246 245 245 246 246 247 247 246 246 245 245 245 245 245 246 246 247 248 249 249 251 252 253 253 255 256 257 258 260 261 264 266 267 269 274 276 280 282 285 289 290 292
255 252 250 249 250 251 251 251 251 250 248 247 248 247 247 247 248 248 248 250 251 251 253 253 254 255 256 256 258 260 262 264 266 266 268 272 274 276 279 283 285 289 292
258 258 257 254 253 253 253 249 250 251 251 250 249 248 248 249 249 248 248 249 251 252 253 254 254 255 256 256 257 258 261 262 266 268 269 271 273 275 276 276 278 280 285
259 259 259 259 259 255 255 254 250 252 254 253 253 251 250 250 250 250 249 249 251 252 253 254 255 255 255 255 256 257 259 263 264 266 268 269 271 273 274 274 274 274 278
259 259 259 260 259 259 257 257 254 253 254 252 257 253 252 252 251 251 250 250 251 252 253 255 256 256 255 255 256 257 258 260 262 264 265 266 268 270 272 273 272 271 273
259 259 259 259 259 258 258 257 257 254 254 252 255 255 256 255 252 251 252 252 253 252 253 254 255 256 256 256 257 258 258 258 259 261 262 263 265 267 269 271 272 271 271
260 259 258 258 258 258 256 256 256 256 256 256 255 257 256 260 257 251 252 255 258 255 255 256 255 255 255 256 257 257 257 257 259 260 261 262 264 265 265 267 268 269 270
260 259 258 257 257 257 256 255 254 255 255 257 258 258 257 256 256 256 256 257 256 257 259 259 256 254 253 254 254 255 256 257 259 259 259 260 262 263 263 264 265 267 268
262 260 258 257 257 256 256 256 253 253 254 255 256 256 258 258 257 259 258 258 256 256 255 256 256 256 255 254 253 254 255 255 257 258 258 258 260 261 262 263 264 265 267
265 262 259 258 256 256 256 256 255 254 253 254 254 255 256 258 259 259 259 259 257 255 254 255 256 255 256 256 254 252 253 254 254 256 257 258 258 259 260 261 263 264 266
268 264 260 258 257 256 255 255 255 253 253 254 253 254 256 257 257 258 260 261 260 255 253 254 256 256 253 257 255 254 253 253 254 257 257 257 258 259 260 260 261 263 263
270 266 263 259 257 256 255 255 254 255 253 253 253 254 254 254 254 256 258 260 258 257 255 252 255 255 253 255 256 254 253 253 253 255 255 256 255 256 259 259 260 261 262
271 268 264 261 258 256 255 254 253 254 254 253 251 252 253 253 253 254 256 258 259 257 259 253 253 255 251 254 252 254 252 253 254 253 253 253 254 255 257 258 260 261 261
272 269 266 262 258 256 255 253 253 254 254 254 252 250 250 251 252 252 253 254 257 259 260 259 253 253 252 252 253 251 252 252 252 254 252 252 253 254 256 259 261 263 263
274 271 267 262 259 255 254 253 252 254 255 255 254 250 248 249 250 250 250 252 253 256 256 257 254 251 251 252 254 245 251 253 253 254 252 252 252 255 258 260 261 263 265
277 273 269 264 259 256 254 253 253 254 255 255 255 253 249 247 247 248 249 250 251 253 254 254 252 251 250 250 249 250 252 257 257 257 256 256 256 257 259 263 264 264 264
282 276 272 267 261 257 254 254 254 255 257 258 256 253 251 246 245 246 246 247 248 249 250 251 249 250 249 250 251 251 256 252 256 258 259 260 260 260 260 261 264 265 266
290 282 278 271 264 260 258 257 258 258 260 260 258 255 251 247 243 243 243 244 244 244 246 246 247 249 248 248 250 251 252 257 256 255 256 259 263 265 261 261 260 264 267
299 292 285 279 272 268 265 263 263 263 263 262 261 256 248 245 241 239 239 239 240 240 240 242 244 246 246 247 249 250 253 251 254 254 255 257 259 261 264 265 259 259 262